User: anonymous   Login
Location: Newark
(45.9456°N, 15.4064°E)
Time: 21:55:58
(UTC+00:00)
Language:

Explorer 11/Cluster Stage 4 - Orbit

View from above orbital plane
View from above orbital plane
View from above satellite
View from above satellite

Ground track
Ground track

The orbit data is extracted from the following two-line orbital elements,

1   107U 61013A   20029.02918139  .00000265  00000-0  12601-4 0  9992
2   107  28.7900 254.4930 0547122 254.4883  99.4649 14.08895975945957
Epoch (UTC): 29 January 2020 00:42:01
Eccentricity: 0.0547122
inclination: 28.7900°
perigee height: 467 km
apogee height: 1259 km
right ascension of ascending node: 254.4930°
argument of perigee: 254.4883°
revolutions per day: 14.08895975
mean anomaly at epoch: 99.4649°
orbit number at epoch: 94595

The dashed part of the orbit path shows where the satellite is in the earth's shadow,  

DLR